Location: Cabri�res
(43.7840°N, 5.4986°E)
Time: 10:49:53
(UTC+00:00)

Cosmos 1076 Rocket - Pass Details

Date: 09 April 2020
Orbit: 590 x 612 km, 82.5° (Epoch: 05 June)

Event Time Altitude Azimuth Distance (km) Brightness Sun altitude
Rises 19:39:29 0° 1° (N) 2,850 7.3 -15.2°
Reaches altitude 10° 19:41:56 10° 13° (NNE) 1,946 6.3 -15.6°
Maximum altitude 19:45:42 29° 74° (ENE) 1,121 4.5 -16.2°
Enters shadow 19:46:23 27° 92° (E) 1,159 4.4 -16.3°
